SL-14 DEB

Satellite information

Favourite Embed

Satellite Type and Status

DEBRISIN ORBIT

Key statistics

Satellite SL-14 DEB at a glance.

Uptime

12381

Days in orbit

Revolutions

≈ 13.6

Per day

Orbit

LEO

Low Earth Orbit

Inclination

82.6

Latest

Satellite identification and parameters

Extended collection of information and parameters for SL-14 DEB.

Object identification

Identified? True

Debris? True

Object name: SL-14 DEB

International designator: 1991-056AL

Object number (NORAD): 45298

Object ID (CCSDS): 45298

Country: COMMONWEALTH OF INDEPENDENT STATES (CIS)

Current information (Y/N): Y

RCS size: MEDIUM

Orbital parameters

Period: 105.628 minutes

Inclination: 82.5873 deg

SMA: 7401.934 km

Apoapsis: 1139.412 km

Periapsis: 908.185 km

RAAN: 299.1669 deg

Eccentricy: 0.0156194

Argument of periapsis: 259.9393 deg

Mean anomaly: 98.4102 deg

Mean motion: 13.63279752 rev/day

Mean motion (dot): 0.00002237 rev/day2

B* drag term: 0.0026063 1/REarth

Two-line elements (TLE)

Creation date: July 6, 2025, 6:05 p.m.

Reference frame: TEME

Reference center: EARTH

Epoch: July 6, 2025, 8:08 a.m. UTC

TLE line 0: 0 SL-14 DEB

TLE line 1: 1 45298U 91056AL 25187.33955354 .00002237 00000-0 26063-2 0 9992

TLE line 2: 2 45298 82.5873 299.1669 0156194 259.9393 98.4102 13.63279752264765

Live tracking on map

Real-time ground track for satellite SL-14 DEB.

In-orbit conjunctions

A list of the most updated potential collisions computed for object SL-14 DEB.

Target Orbit TCA Probability of collision Miss distance Type
IRS 1A SSO 2025-05-03 17:14:04 0.0001982747 161.0 (m) PAYLOAD

Associated space launch

Third generation meteorological satellite

SL-14 DEB was lifted into orbit during the mission ‘Tsiklon-3 | Meteor-3 5’, on board a Tsiklon-3 space rocket.

The launch took place on Aug. 15, 1991, 9:15 a.m. from 32/2.

For more information about the launch, click the button.

Launch to space Tsiklon-3 | Meteor-3 5
Tsiklon-3 | Meteor-3 5

Agency: N/A

Status: Launch Successful

Launch date: Aug. 15, 1991, 9:15 a.m. UTC

Rocket: Tsiklon-3

Launch pad: 32/2

Location: Plesetsk Cosmodrome, Russian Federation

...

Latest news about this satellite

There are no fresh news available about this satellite. Check back as we update our databases every day.


Newsletter sign-up

Weekly statistics, charts and insights to help you stay on top of the space industry.